Flag for U.S.A. Weather past 2 weeks in Arden-Arcade, California, U.S.A.

Now
99 °F

Partly sunny.


Feels Like: 95 °F
Forecast: 66 / 98 °F
Wind: N/A

Location: Mather Field

Current Time: Aug 28, 2015 at 3:55:41 PM

Latest Report: Aug 28, 2015 at 2:45 PM


Visibility: 10 mi

Pressure: 29.83 "Hg

Humidity: 18%

Dew point: 48 °F

Location of Arden-ArcadeLocation

Historic Weather in Arden-Arcade — Graph

°F

Arden-Arcade temperature yesterday

Maximum temperature yesterday: 100 °F (at 3:50 PM)
Minimum temperature yesterday: 63 °F (at 3:45 AM)
Average temperature yesterday: 80 °F

Past Weeks' High & Low Weather Summary

 TemperatureHumidityPressure
High104 °F (Aug 17, 3:45 PM)100% (Aug 14, 6:45 AM)30.05 "Hg (Aug 14, 6:45 AM)
Low54 °F (Aug 22, 3:45 AM)6% (Aug 16, 6:45 PM)29.74 "Hg (Aug 17, 4:49 PM)
Average76 °F47%29.90 "Hg
* Reported Aug 13 1:45 PM — Aug 28 1:45 PM, Arden-Arcade, Weather by CustomWeather, © 2015

Note: Actual official high and low records may vary slightly from our data, if they occured in-between our weather recording intervals... More about our weather records

Advertising

Arden-Arcade weather history for previous 24 hours

 ConditionsComfort  
Time TempWeatherWind HumidityBarometerVisibility
1:45 PM
Fri, Aug 28
99 °FPartly sunny.9 mph18%29.84 "Hg10 mi
11:45 AM91 °FPartly sunny.5 mph24%29.89 "Hg10 mi
11:15 AM91 °FPartly sunny.7 mph26%29.89 "Hg10 mi
9:45 AM82 °FScattered clouds.N/A32%29.90 "Hg10 mi
8:45 AM79 °FScattered clouds.5 mph37%29.90 "Hg10 mi
7:45 AM72 °FScattered clouds.5 mph44%29.89 "Hg10 mi
6:45 AM64 °FPassing clouds.6 mph56%29.89 "Hg10 mi
5:55 AM63 °FClear.3 mph64%29.88 "Hg10 mi
4:45 AM66 °FClear.5 mph64%29.89 "Hg10 mi
3:45 AM66 °FPassing clouds.7 mph60%29.90 "Hg10 mi
2:55 AM66 °FClear.7 mph60%29.90 "Hg10 mi
11:30 PM
Thu, Aug 27
72 °FPassing clouds.7 mph47%29.92 "Hg10 mi
10:45 PM73 °FPassing clouds.7 mph44%29.92 "Hg10 mi
9:45 PM79 °FPassing clouds.3 mph37%29.92 "Hg10 mi
8:45 PM84 °FPassing clouds.8 mph31%29.90 "Hg10 mi
7:46 PM88 °FScattered clouds.7 mph25%29.89 "Hg10 mi
6:50 PM97 °FScattered clouds.10 mph19%29.89 "Hg10 mi
5:45 PM100 °FScattered clouds.8 mph15%29.90 "Hg10 mi
3:50 PM100 °FScattered clouds.6 mph17%29.93 "Hg10 mi
Weather by CustomWeather, © 2015

See weather overviewHow to use our weather pages